Wind_Speed
4 5 6 7 8 8 9 8 8 8 9 8 7 8 8 7 7 8 7 7 7 7 7 8 8 8 8 7 7 6 5 5 4 3 2 2 2 2 3 4 5 5 6 6
4 5 6 7 8 9 8 8 8 8 8 8 8 8 8 8 7 8 8 7 6 7 7 7 8 8 7 7 6 6 6 5 4 3 2 2 2 3 4 4 5 5 6 6
4 5 6 7 8 9 8 7 7 7 8 8 8 7 8 8 8 8 8 7 7 7 7 7 8 8 7 7 7 7 6 5 4 4 3 2 3 3 3 4 5 5 6 6
4 5 7 8 9 9 9 8 7 7 7 8 8 7 7 7 7 8 8 8 8 8 8 8 8 7 7 7 8 7 6 6 5 4 3 3 3 3 3 4 4 5 6 6
5 6 8 8 8 8 9 9 9 8 7 7 7 7 7 7 7 7 8 8 8 8 8 8 8 8 8 7 7 7 6 6 5 4 3 3 3 3 3 3 3 4 5 6
5 7 8 8 8 7 9 8 8 8 7 7 7 7 7 7 6 7 7 8 8 9 9 9 9 9 8 7 7 7 6 5 5 4 3 3 3 3 3 3 3 4 5 6
6 6 8 8 8 8 9 8 8 8 8 7 7 7 6 7 6 7 7 8 8 8 9 10 9 9 8 8 7 6 6 5 5 4 4 4 3 3 3 3 4 4 5 6
5 6 7 8 8 8 9 9 9 8 7 7 8 7 6 7 7 7 8 9 9 9 9 10 10 9 8 7 7 7 7 6 5 4 4 4 3 3 3 4 4 4 4 5
5 5 7 9 9 9 9 9 9 9 7 7 8 7 6 6 7 7 8 8 9 9 9 9 9 9 8 8 7 7 7 6 5 5 4 4 4 4 4 4 4 4 5 5
5 6 7 8 9 9 9 9 9 9 8 7 8 7 6 6 6 7 8 8 9 10 10 10 10 9 8 8 7 7 7 6 6 5 5 5 5 4 4 4 4 5 5 5
6 6 7 9 9 9 10 9 8 9 9 8 7 7 6 6 6 7 8 8 9 10 10 10 10 9 9 8 8 7 7 6 6 5 5 5 5 5 5 5 5 5 5 5
7 6 7 8 9 10 11 10 10 10 10 9 8 6 6 6 6 7 8 8 9 9 10 10 10 10 9 9 9 8 8 7 7 6 6 6 6 6 6 6 5 5 5 6
9 8 8 9 10 11 11 10 10 10 10 10 8 6 7 7 6 7 7 8 9 9 10 10 10 10 10 10 10 10 9 9 8 7 7 7 7 7 7 7 6 6 6 7
10 10 10 10 10 11 11 11 10 10 10 10 9 8 7 7 7 7 7 8 9 9 10 10 10 10 10 11 11 10 10 9 9 8 8 8 8 8 8 8 8 8 8 8
12 12 12 11 12 12 12 12 11 10 9 10 10 10 9 8 8 8 8 8 9 9 10 10 10 10 11 11 11 11 11 10 10 9 9 9 9 9 9 9 9 9 9 9
14 14 14 13 13 13 13 12 11 10 10 10 11 10 10 10 9 9 9 9 9 10 10 11 11 11 11 11 11 12 11 11 11 11 10 10 10 10 10 10 10 11 11 11
15 15 15 14 15 15 14 12 12 12 10 11 11 11 12 12 11 10 10 10 11 11 11 11 11 11 11 11 11 12 12 12 12 12 11 11 11 11 12 12 12 12 12 13
17 17 17 17 17 17 14 14 14 13 13 13 12 12 13 13 13 12 11 10 11 12 12 11 12 12 12 12 12 13 13 13 13 13 13 13 13 13 13 14 14 14 14 14
19 18 18 19 18 17 15 15 16 15 14 14 13 13 13 14 14 13 12 12 12 12 13 12 13 13 13 14 14 14 14 13 14 14 14 14 15 15 15 15 15 16 16 16
20 20 20 20 19 19 16 16 18 17 16 15 15 14 14 14 14 13 13 13 14 14 14 14 14 14 14 14 14 15 15 14 15 15 15 16 16 16 16 16 17 18 18 18
23 22 22 21 20 19 17 18 18 19 16 16 16 15 14 14 13 14 14 14 15 15 16 16 15 15 15 15 16 16 16 15 16 16 17 17 17 17 18 18 19 20 20 20
25 25 24 23 23 20 19 19 18 18 17 17 16 16 15 14 15 15 15 15 16 17 17 17 17 17 17 17 17 17 17 17 18 18 18 18 18 19 19 20 21 21 22 22
26 26 26 25 24 21 21 21 20 19 19 18 18 17 17 16 16 16 16 17 17 18 18 18 18 18 18 18 18 18 19 19 19 20 20 20 20 21 21 22 23 23 24 24
26 27 27 26 25 24 23 23 22 21 20 20 20 19 18 17 17 17 17 18 18 18 19 19 19 20 20 19 19 19 20 21 21 22 22 22 22 23 24 24 25 25 26 26
26 27 27 28 27 26 24 24 23 22 22 22 21 20 20 19 18 19 19 20 19 19 19 20 20 20 20 20 21 21 21 22 23 23 24 24 24 25 25 26 26 27 27 28
27 27 28 28 28 27 26 25 24 25 24 24 23 22 22 21 20 20 20 20 21 21 21 22 22 21 22 22 23 23 23 23 24 25 25 26 26 26 26 27 28 28 29 29
Wind_Direction
184 177 171 171 174 178 174 171 171 172 172 171 170 172 175 177 181 186 189 190 187 189 189 189 187 184 185 189 193 194 191 191 187 192 214 234 269 293 314 331 336 338 339 340
185 185 183 178 179 183 182 179 176 169 168 173 173 179 180 180 183 189 194 195 189 190 196 195 192 195 196 198 199 200 199 198 199 212 230 250 273 299 320 336 340 341 343 344
189 179 182 184 180 181 179 177 174 172 168 173 175 182 187 188 192 196 201 204 202 198 198 192 188 195 205 205 204 206 207 203 208 218 234 255 273 298 320 334 340 344 346 345
181 179 185 186 183 184 181 173 174 178 175 176 180 183 189 191 195 196 201 206 204 201 200 193 191 198 203 207 208 211 210 210 215 224 234 254 273 295 317 330 337 344 349 352
179 180 183 185 185 185 180 175 175 181 185 188 186 189 193 199 203 200 200 204 208 207 200 200 200 202 206 211 209 203 204 211 216 226 244 256 268 285 306 323 333 345 351 351
184 182 185 187 190 189 186 185 187 188 189 197 195 194 191 198 204 199 195 200 205 205 202 203 204 207 210 211 210 203 203 210 215 222 239 257 271 281 289 308 324 338 344 345
183 185 189 193 197 197 194 192 196 198 202 201 200 197 190 195 204 199 198 202 204 207 208 205 208 213 215 212 212 212 211 214 218 229 242 259 265 274 288 302 313 327 336 340
192 187 188 192 197 199 198 197 205 209 208 209 210 206 195 199 207 202 199 202 204 207 205 205 209 213 214 213 214 213 215 217 220 231 244 250 255 268 282 296 308 320 331 337
202 200 201 199 200 201 202 199 208 216 219 225 220 212 205 202 206 203 197 199 203 204 205 206 209 211 213 211 212 211 215 218 222 230 239 249 258 268 278 289 300 310 324 332
209 210 213 209 205 205 200 201 209 217 227 230 224 216 204 211 212 206 199 195 199 206 209 210 210 212 214 215 214 213 214 219 225 233 241 252 258 264 270 279 292 306 317 327
219 217 217 213 205 199 200 207 213 224 231 235 233 219 205 210 213 209 202 205 206 209 213 215 213 213 214 212 212 215 216 223 229 238 247 251 255 262 271 277 288 302 310 318
225 225 221 215 206 205 206 211 218 230 234 240 241 217 215 221 221 215 208 210 212 212 218 220 217 217 219 216 218 222 222 226 232 239 244 249 258 265 272 276 282 292 301 307
225 226 225 220 218 216 214 217 223 234 240 241 239 224 222 228 229 221 218 217 218 218 219 218 220 219 223 224 225 227 226 229 232 238 244 250 257 264 271 273 274 280 289 297
231 232 231 228 228 225 221 226 233 236 242 244 240 239 237 236 233 228 224 222 222 223 223 225 225 227 227 227 226 229 231 232 235 240 246 252 257 260 267 269 270 277 284 292
232 232 230 229 229 228 225 228 232 237 242 245 240 240 241 239 235 232 230 228 226 226 225 227 229 231 230 229 230 232 236 239 241 244 248 254 258 262 266 268 271 277 283 290
235 235 234 231 228 226 226 228 232 238 242 243 245 242 240 240 237 235 234 234 233 231 229 226 229 231 232 233 232 234 238 242 245 249 251 255 260 263 265 268 272 278 284 289
237 237 236 234 229 229 228 232 237 240 244 247 248 244 242 241 239 236 236 235 233 232 232 230 232 235 235 235 234 237 241 244 247 249 252 257 261 263 265 268 273 278 283 288
238 238 239 239 235 235 234 235 242 246 248 249 249 247 244 245 243 237 237 238 232 231 232 233 236 238 238 239 239 241 245 247 249 251 254 257 261 266 269 269 272 276 282 286
235 238 241 242 241 242 237 237 242 247 249 246 247 246 245 245 244 240 239 237 234 235 237 240 241 242 243 242 242 244 247 250 252 254 257 260 262 267 270 270 273 276 280 285
237 240 241 241 244 244 240 240 242 247 246 243 245 245 246 247 246 243 243 240 238 240 242 243 244 245 246 244 245 247 249 252 255 257 260 261 263 267 269 271 274 277 280 284
237 239 239 240 243 244 242 242 244 247 247 245 247 248 247 247 248 247 247 245 240 241 243 245 246 248 247 247 247 248 250 253 256 259 261 261 264 267 269 272 275 278 280 283
235 238 240 241 244 245 245 246 246 249 248 247 248 248 250 250 250 250 249 248 245 245 247 248 248 249 249 249 249 250 253 255 258 261 264 265 267 269 271 274 277 279 282 283
235 237 239 242 245 246 246 246 247 249 248 247 248 249 250 250 249 249 248 246 246 247 248 249 249 251 250 251 252 252 254 256 259 261 263 266 268 271 274 276 278 280 283 284
237 237 239 242 243 244 246 246 249 251 250 250 250 251 251 252 249 248 248 248 250 251 251 251 252 253 253 251 251 254 257 260 261 262 264 267 269 272 275 277 279 281 283 284
238 240 241 242 243 243 245 246 247 248 249 251 252 253 254 255 253 250 249 248 248 250 251 251 252 253 253 253 253 256 260 262 264 264 266 268 271 274 276 277 279 281 282 283
239 241 242 243 244 244 244 245 247 248 249 250 251 252 254 255 254 253 251 250 249 249 250 252 252 254 254 255 257 259 261 264 265 266 268 270 273 275 276 277 278 280 282 283
Height
5848 5849 5850 5851 5852 5853 5854 5856 5857 5858 5860 5862 5863 5865 5866 5867 5868 5869 5871 5872 5874 5875 5877 5878 5879 5880 5882 5883 5884 5885 5886 5887 5887 5888 5888 5888 5888 5888 5888 5887 5886 5885 5883 5882
5848 5849 5850 5850 5851 5852 5854 5855 5857 5858 5859 5861 5863 5864 5865 5866 5868 5869 5870 5872 5873 5874 5875 5877 5878 5880 5881 5882 5883 5884 5885 5886 5886 5887 5887 5888 5888 5887 5887 5886 5885 5884 5883 5881
5847 5848 5848 5850 5851 5852 5854 5855 5856 5858 5859 5861 5862 5864 5865 5866 5867 5868 5869 5870 5871 5873 5874 5876 5877 5879 5880 5881 5882 5883 5884 5885 5885 5886 5886 5887 5887 5886 5886 5885 5884 5883 5882 5881
5846 5847 5848 5849 5850 5852 5854 5855 5856 5858 5859 5860 5862 5863 5864 5865 5866 5867 5868 5869 5871 5872 5874 5875 5877 5878 5879 5880 5881 5882 5883 5884 5884 5885 5885 5885 5885 5885 5885 5884 5883 5882 5881 5880
5845 5846 5847 5848 5850 5852 5853 5854 5856 5857 5858 5860 5861 5862 5864 5863 5865 5866 5867 5868 5869 5871 5873 5874 5876 5877 5878 5879 5880 5881 5882 5883 5883 5884 5884 5884 5884 5884 5884 5883 5883 5882 5881 5879
5845 5845 5846 5848 5849 5851 5853 5854 5855 5856 5857 5859 5860 5861 5863 5863 5864 5865 5866 5867 5868 5870 5871 5873 5874 5875 5877 5878 5879 5880 5881 5881 5882 5883 5883 5883 5883 5883 5883 5883 5882 5881 5880 5879
5844 5845 5846 5847 5848 5850 5852 5854 5855 5855 5856 5858 5859 5859 5861 5862 5862 5863 5864 5866 5867 5868 5870 5871 5873 5874 5875 5876 5877 5878 5879 5880 5881 5881 5882 5882 5882 5882 5882 5882 5881 5880 5879 5878
5844 5844 5845 5846 5847 5849 5850 5852 5854 5855 5856 5857 5857 5857 5860 5860 5860 5861 5863 5864 5865 5867 5868 5870 5871 5872 5874 5875 5876 5877 5878 5879 5880 5880 5881 5881 5881 5881 5881 5881 5880 5879 5878 5877
5843 5844 5844 5844 5846 5847 5849 5850 5852 5854 5854 5855 5855 5857 5858 5858 5858 5860 5861 5862 5864 5865 5866 5868 5870 5871 5872 5873 5874 5875 5876 5877 5878 5879 5879 5880 5880 5880 5880 5879 5879 5878 5877 5876
5841 5842 5842 5843 5844 5846 5848 5849 5851 5852 5853 5853 5854 5854 5856 5856 5857 5858 5859 5861 5862 5864 5865 5866 5868 5870 5871 5872 5873 5874 5875 5876 5877 5877 5878 5878 5878 5878 5878 5878 5878 5877 5876 5875
5840 5841 5842 5842 5843 5844 5846 5848 5849 5850 5851 5852 5852 5855 5855 5855 5856 5857 5858 5859 5861 5862 5864 5865 5866 5868 5869 5870 5871 5872 5873 5874 5875 5875 5876 5876 5877 5877 5876 5876 5876 5875 5875 5874
5838 5839 5840 5841 5842 5843 5844 5845 5847 5849 5849 5849 5850 5855 5853 5854 5854 5855 5857 5858 5859 5860 5862 5863 5864 5866 5867 5868 5870 5871 5872 5873 5873 5874 5874 5874 5875 5875 5875 5874 5874 5874 5873 5872
5836 5838 5838 5839 5842 5842 5842 5843 5844 5846 5847 5847 5849 5853 5851 5852 5853 5854 5855 5856 5857 5858 5859 5861 5862 5864 5865 5866 5868 5869 5870 5871 5871 5872 5872 5873 5873 5873 5873 5872 5872 5872 5871 5870
5834 5835 5837 5838 5839 5839 5840 5841 5842 5843 5844 5845 5847 5849 5850 5850 5851 5852 5853 5854 5855 5856 5857 5859 5860 5862 5863 5864 5866 5867 5868 5869 5869 5870 5870 5870 5871 5871 5871 5870 5870 5870 5869 5868
5831 5832 5833 5835 5836 5837 5838 5839 5840 5841 5842 5843 5844 5845 5847 5848 5849 5850 5851 5852 5853 5854 5855 5857 5858 5860 5861 5862 5863 5864 5865 5866 5867 5867 5868 5868 5868 5868 5868 5868 5868 5867 5867 5866
5827 5829 5830 5832 5833 5834 5835 5837 5838 5839 5840 5840 5841 5843 5844 5845 5846 5847 5848 5849 5850 5852 5853 5855 5856 5857 5858 5859 5861 5862 5862 5863 5864 5864 5865 5865 5865 5865 5865 5865 5865 5864 5864 5863
5824 5826 5827 5829 5830 5830 5832 5834 5835 5836 5837 5838 5838 5841 5841 5842 5843 5844 5845 5847 5848 5849 5851 5852 5853 5855 5856 5857 5858 5858 5859 5860 5861 5861 5862 5862 5862 5862 5862 5862 5862 5861 5860 5860
5820 5821 5823 5825 5827 5827 5832 5831 5832 5832 5833 5834 5835 5836 5837 5838 5839 5841 5842 5844 5845 5846 5848 5849 5850 5851 5853 5853 5854 5855 5856 5856 5857 5858 5858 5858 5858 5858 5858 5858 5858 5857 5857 5856
5816 5817 5819 5820 5821 5823 5827 5828 5828 5829 5830 5831 5832 5833 5834 5834 5836 5837 5839 5840 5842 5843 5844 5845 5846 5847 5848 5849 5850 5851 5852 5853 5853 5854 5854 5854 5854 5854 5854 5854 5854 5853 5852 5851
5811 5812 5814 5816 5817 5819 5823 5823 5823 5825 5825 5827 5828 5829 5830 5831 5832 5835 5835 5836 5838 5839 5840 5841 5842 5843 5844 5845 5846 5847 5848 5849 5849 5850 5850 5850 5850 5850 5850 5850 5849 5848 5848 5847
5805 5807 5809 5810 5812 5814 5817 5818 5819 5821 5822 5823 5824 5825 5826 5827 5829 5831 5831 5832 5833 5835 5836 5837 5838 5839 5840 5841 5842 5843 5844 5845 5845 5845 5845 5845 5845 5845 5845 5844 5844 5843 5842 5841
5799 5801 5803 5805 5807 5811 5811 5812 5814 5815 5816 5818 5819 5820 5822 5823 5824 5825 5826 5827 5829 5830 5831 5832 5833 5834 5835 5836 5837 5838 5839 5840 5840 5840 5840 5840 5840 5840 5839 5839 5838 5838 5837 5836
5793 5796 5797 5800 5803 5804 5805 5807 5808 5809 5811 5812 5814 5815 5817 5818 5819 5820 5821 5822 5823 5825 5826 5827 5828 5829 5830 5831 5832 5833 5834 5834 5834 5834 5835 5835 5835 5834 5834 5833 5832 5831 5830 5829
5786 5789 5791 5793 5795 5797 5799 5801 5802 5803 5805 5807 5808 5809 5811 5812 5813 5814 5816 5817 5818 5819 5820 5821 5822 5824 5824 5825 5826 5827 5828 5828 5828 5828 5829 5829 5828 5828 5827 5827 5826 5825 5823 5822
5780 5782 5783 5786 5788 5790 5792 5794 5796 5797 5798 5800 5802 5803 5805 5806 5807 5809 5810 5811 5812 5813 5814 5816 5817 5817 5818 5819 5820 5821 5821 5821 5822 5822 5822 5822 5821 5821 5820 5819 5818 5817 5816 5814
5773 5775 5777 5779 5782 5784 5786 5788 5789 5791 5792 5794 5795 5797 5798 5800 5801 5802 5803 5804 5806 5807 5808 5809 5810 5811 5812 5813 5814 5814 5814 5815 5815 5815 5815 5814 5814 5813 5812 5811 5810 5809 5808 5806